Regional Weather Roundup
Issued by NWS

Home | Current Version | Previous Version | Text Only | Print | Product List | Glossary On
Versions: 1 2 3 4 5 6 7 8 9 10 11 12 13 14 15 16 17 18 19 20 21 22 23 24 25 26 27 28 29 30 31 32 33 34 35 36 37 38 39 40 41 42 43 44 45 46 47 48 49 50
000
ASUS43 KBIS 031101
RWRND

NORTH DAKOTA REGIONAL WEATHER ROUNDUP
NATIONAL WEATHER SERVICE BISMARCK ND
500 AM CST TUE MAR 03 2015

NOTE: "FAIR" INDICATES FEW OR NO CLOUDS BELOW 12,000 FEET WITH NO
SIGNIFICANT WEATHER AND/OR OBSTRUCTIONS TO VISIBILITY.


NDZ001>003-009>011-017-031200-
NORTHWEST NORTH DAKOTA

CITY           SKY/WX    TMP DP  RH WIND       PRES   REMARKS
WILLISTON      PTCLDY     3  -5  69 W9        30.07R WCI -12
MINOT          FLURRIES   3  -5  69 W23G30    29.94R WCI -19
MINOT AFB      CLEAR      3  -3  75 NW25      29.93R WCI -20
$$

NDZ018>021-031>035-040>046-031200-
SOUTHWEST NORTH DAKOTA

CITY           SKY/WX    TMP DP  RH WIND       PRES   REMARKS
BISMARCK       CLOUDY    12   0  58 NW22G36   29.94R WCI  -7
DICKINSON      CLOUDY     9  -5  53 NW26G36   29.93R WCI -13
GARRISON         N/A      5  -2  72 NW24      29.94R WCI -17
HETTINGER ARPT CLOUDY    11   1  64 N24G35    29.92R WCI  -9
$$

NDZ004>008-012>016-024-026-027-054-031200-
NORTHEAST NORTH DAKOTA

CITY           SKY/WX    TMP DP  RH WIND       PRES   REMARKS
GRAND FORKS    CLOUDY    19  12  74 NW17G23   29.75F WCI   4
GRND FRKS AFB  CLOUDY    18  10  72 NW17      29.76S WCI   2
DEVILS LAKE    MOCLDY    12   3  67 NW20      29.79F WCI  -6
$$

NDZ022-023-025-028>030-036>039-047>053-031200-
SOUTHEAST NORTH DAKOTA

CITY           SKY/WX    TMP DP  RH WIND       PRES   REMARKS
FARGO          LGT SNOW  23  16  74 NW24G31   29.73S WCI   7
JAMESTOWN      MIX PCPN  15   9  76 NW22G32   29.79R WCI  -3
$$




USA.gov is the U.S. government's official web portal to all federal, state and local government web resources and services.